* Astronomy

Members Login
Username 
 
Password 
    Remember Me  
Post Info TOPIC: Asteroid 2012 JQ4


L

Posts: 131433
Date:
Asteroid 2012 JQ4
Permalink  
 


Orbital elements:
2012 JQ4                                                 Earth MOID = 0.0519 AU
Epoch 2012 Mar. 14.0 TT = JDT 2456000.5                 MPC
M 353.97022              (2000.0)            P               Q
n   0.25880535     Peri.  134.04054     -0.95681919     +0.09875816
a   2.4386748      Node    53.54743     -0.24167171     -0.79289840
e   0.6086320      Incl.   19.87040     +0.16152964     -0.60129772
P   3.81           H   21.8           G   0.15           U   7

MPEC 2012 - J46



__________________
Page 1 of 1  sorted by
 
Quick Reply

Please log in to post quick replies.



Create your own FREE Forum
Report Abuse
Powered by ActiveBoard